User: anonymous   Login
Location: Unspecified
(0.0000°N, 0.0000°E)
Time: 00:57:57
(UTC+00:00)
Language:

CUSAT 1 - Orbit

View from above orbital plane
View from above orbital plane
View from above satellite
View from above satellite

Ground track
Ground track

The orbit data is extracted from the following two-line orbital elements,

1 39266U 13055B   24111.52542593  .00037964  00000-0  71333-3 0  9993
2 39266  80.9680 221.7202 0445385 317.4431  39.3038 14.83145366552657
Epoch (UTC): 20 April 2024 12:36:36
Eccentricity: 0.0445385
inclination: 80.9680°
perigee height: 308 km
apogee height: 931 km
right ascension of ascending node: 221.7202°
argument of perigee: 317.4431°
revolutions per day: 14.83145366
mean anomaly at epoch: 39.3038°
orbit number at epoch: 55265

The dashed part of the orbit path shows where the satellite is in the earth's shadow,  

DLR